sat.trackr.live / text

‹ back to catalog

STARLINK-32665

NORAD 62203 · 2024-229M

PAYLOAD ACTIVE UNKNOWN

§ Identity

Operator
Country
US
Launch date
2024-12-04
Launch site
AFETR
Launch vehicle
Mass (kg)
RCS (m²)

Purposes: comms

External: N2YO · Heavens-Above · Gunter

§ Orbital elements

Epoch: 2026-09-21T00:21:05.645952Z

Period
94.27 min
Inclination
43.0016°
Eccentricity
0.0001125
Mean motion
15.27564332 rev/d
Perigee alt
482.3 km
Apogee alt
483.9 km
Semi-major
6,861.2 km
B*
1.0930e-4
RAAN
247.6399°
Arg perigee
267.9494°
Mean anomaly
92.1229°
Rev number
10,043

§ Raw data

STARLINK-326651 62203U 24229M   26264.01464868  .00002746  00000+0  10930-3 0  99932 62203  43.0016 247.6399 0001125 267.9494  92.1229 15.27564332100430

JSON: /api/v1/satellites/62203 · /tle

For live sub-satellite position, see the globe view (requires WebGL).

§ Visibility from observer

Set your observer location to see the next 7 days of passes ≥ 10°. The values pass through the URL so the page stays shareable.

No JS? Fill the form by hand. The geolocation button needs JavaScript.